Tracking 19644 objects as of 25-Apr-2019
HD Live streaming from Space Station
objects crossing your sky now

CZ-4 DEB

Track CZ-4 DEB now!
10-day predictions


NORAD ID: 26416
Int'l Code: 1999-057JM
Perigee: 618.7 km
Apogee: 687.0 km
Inclination: 98.1 °
Period: 97.6 minutes
Semi major axis: 7023 km
RCS: 0.03 m2 (small)
Launch date: October 14, 1999
Source: People's Republic of China (PRC)
Launch site: Taiyaun Space Center, China (TSC)

Note: This is SATELLITE DEBRIS
aabbcc
Your satellite tracking list
Your tracking list is empty




NASA's NSSDC Master Catalog

Two Line Element Set (TLE):
1 26416U 99057JM  19115.27300990  .00001197  00000-0  18346-3 0  9999
2 26416  98.1182 127.1059 0048578 267.3632 156.3096 14.74828396 10290
Source of the keplerian elements: AFSPC